#timestamp,LO_Frequency,Hit,StdDev 
1663948815.0,286046997.4,N
1663948815.9,286046997.4,N
1663948835.8,286046997.4,N
1663948855.6,286046996.6,N
1663948875.5,286046998.1,N
1663948895.3,286047000.3,N
1663948915.1,286047002.2,N
1663948935.9,286047002.2,N
1663948955.7,286047001.5,N
1663948975.5,286047001.0,N
1663948995.4,286047000.7,N
1663949015.2,286047000.6,N
1663949035.1,286047000.7,N
1663949036.0,286047000.7,N
1663949055.8,286046998.5,N
1663949075.6,286046996.6,N
1663949095.5,286046997.1,N
1663949115.3,286046998.1,N
1663949135.2,286046998.8,N
1663949155.9,286046997.0,N
1663949175.7,286046998.2,N
1663949195.6,286047000.0,N
1663949215.4,286047000.9,N
1663949235.2,286047002.2,N
1663949255.1,286047000.5,N
1663949256.0,286047000.5,N
1663949275.8,286046998.1,N
1663949295.7,286047001.2,N
1663949315.5,286046999.3,N
1663949335.3,286046998.7,N
1663949355.2,286047000.4,N
1663949375.0,286046999.2,N
1663949375.9,286046999.2,N
1663949395.8,286046996.7,N
1663949415.6,286046996.9,N
1663949435.4,286046997.4,N
1663949455.3,286046997.3,N
1663949475.1,286046996.6,N
1663949495.8,286047001.0,N
1663949515.7,286046998.2,N
1663949535.5,286046998.1,N
1663949555.4,286047000.5,N
1663949575.2,286047000.4,N
1663949595.0,286047000.7,N
1663949595.9,286047000.7,N
1663949615.8,286046999.3,N
1663949635.6,286046998.3,N
1663949655.5,286047000.3,N
1663949675.3,286047000.1,N
1663949695.1,286047001.7,N
1663949715.9,286047003.1,N
1663949735.7,286047003.6,N
1663949755.5,286047003.2,N
1663949775.4,286047004.2,N
1663949795.2,286047004.2,N
1663949815.1,286047003.4,N
1663949816.0,286047003.4,N
1663949835.8,286047005.9,N
1663949855.6,286047002.9,N
1663949875.5,286047004.8,N
1663949895.3,286047003.5,N
1663949915.1,286047002.3,N
1663949935.9,286047000.2,N
1663949955.7,286047001.5,N
1663949975.6,286047001.6,N
1663949995.4,286047003.2,N
1663950015.2,286047003.1,N
1663950035.1,286047003.8,N
1663950036.0,286047003.8,N
1663950055.8,286047002.9,N
1663950075.6,286047003.3,N
1663950095.5,286047001.5,N
1663950115.3,286047001.6,N
1663950135.2,286047003.8,N
1663950155.9,286047005.9,Y
1663950175.7,286047001.8,P
1663950195.6,286047003.8,P
1663950215.4,286047001.6,N
1663950235.3,286047002.7,Y
1663950255.1,286046998.3,P
1663950256.0,286046998.3,N
1663950275.8,286046996.6,N
1663950295.7,286046999.5,N
1663950315.5,286046998.8,N
1663950335.3,286046999.5,N
1663950355.2,286046998.6,N
1663950375.0,286047000.8,N
1663950375.9,286047000.8,N
1663950395.8,286046998.4,N
1663950415.6,286046996.7,N
1663950435.4,286046997.5,N
1663950455.3,286046995.2,Y
1663950475.1,286046996.1,P
1663950495.9,286046993.4,P
1663950515.7,286046995.0,N
1663950535.5,286046996.6,N
1663950555.4,286046997.0,N
1663950575.2,286046996.8,N
1663950595.0,286046999.4,N
1663950596.0,286046999.4,N
1663950615.8,286046998.6,N
1663950635.6,286046996.9,N
1663950655.5,286046996.0,N
1663950675.3,286046997.1,N
1663950695.1,286046995.6,N
1663950715.9,286046996.9,N
1663950735.7,286046998.3,N
1663950755.6,286047001.2,N
1663950775.4,286047000.9,N
1663950795.2,286046999.0,N
1663950815.1,286046997.2,N
1663950816.0,286046997.2,N
1663950835.8,286046997.0,N
1663950855.7,286046998.8,N
1663950875.5,286046998.9,N
1663950895.3,286047000.6,N
1663950915.2,286046999.7,N
1663950935.0,286047000.1,N
1663950935.9,286047000.1,N
1663950955.7,286047002.7,N
1663950975.6,286047004.4,N
1663950995.4,286047001.8,N
1663951015.3,286046999.8,N
1663951035.1,286046998.7,N
1663951055.8,286046998.5,N
1663951075.7,286047000.3,N
1663951095.5,286047002.8,N
1663951115.4,286047002.6,N
1663951135.2,286046999.8,N
1663951155.0,286047001.3,N
1663951155.9,286047001.3,N
1663951175.8,286047001.6,N
1663951195.6,286047001.8,N
1663951215.5,286047002.8,N
1663951235.3,286046998.3,N
1663951255.1,286046998.8,N
1663951275.9,286047001.2,N
1663951295.7,286047000.9,N
1663951315.5,286047000.9,N
1663951335.4,286046998.2,N
1663951355.2,286047000.4,N
1663951375.1,286047000.0,N
1663951376.0,286047000.0,N
1663951395.8,286047000.4,N
1663951415.6,286047000.0,N
1663951435.5,286046998.8,N
1663951455.3,286046996.5,N
1663951475.1,286046996.7,N
1663951495.9,286046999.2,N
1663951515.7,286046996.5,N
1663951535.6,286046995.3,N
1663951555.4,286046995.2,N
1663951575.3,286047011.9,Y
1663951595.1,286046998.2,P
1663951596.0,286046998.2,N
1663951615.8,286047001.0,N
1663951635.7,286047002.2,N
1663951655.5,286047002.7,N
1663951675.3,286047001.2,N
1663951695.2,286046999.2,N
1663951715.0,286047000.7,N
1663951715.9,286047000.7,N
1663951735.8,286047000.5,N
1663951755.6,286047000.2,N
1663951775.4,286047002.1,N
1663951795.3,286047002.3,N
1663951815.1,286047001.9,N
1663951835.8,286047003.6,N
1663951855.7,286047002.6,N
1663951875.5,286046998.3,N
1663951895.4,286047000.8,N
1663951915.2,286046999.7,N
1663951935.0,286047002.6,N
1663951935.9,286047002.6,N
1663951955.8,286047000.2,N
1663951975.6,286046999.8,N
1663951995.5,286047000.5,N
1663952015.3,286047000.0,N
1663952035.1,286047002.8,N
1663952055.9,286047002.5,N
1663952075.7,286047002.0,N
1663952095.5,286047002.5,N
1663952115.4,286047002.5,N
1663952135.2,286047002.0,N
1663952155.1,286047004.0,N
1663952156.0,286047004.0,N
1663952175.8,286047004.2,N
1663952195.6,286047002.1,N
1663952215.5,286047002.5,N
1663952235.3,286047001.7,N
1663952255.1,286047003.2,N
1663952275.9,286047003.3,N
1663952295.7,286047001.9,N
1663952315.6,286047002.5,N
1663952335.4,286047001.6,N
1663952355.2,286047001.6,N
1663952375.1,286047002.3,N
1663952376.0,286047002.3,N
1663952395.8,286047001.0,N
